This demonstration page uses our WeatherBlox Daily Observations layout. Learn more.

Left ArrowRight Arrow

Hourly Observations for December 22, 2020

Temp ( °F °C ) Dew Point ( °F °C ) Humidity (%) Winds ( mph kmh ) Pressure ( in mb ) Visibility ( mi km ) Precip ( " mm )
12:54 am 00:54 Clear 28 -2.2 24 -4.4 85 85 SE 3 6 30.14 1021 10 16.0934 0 0
1:54 am 01:54 Clear 28 -2.2 25 -3.9 88 88 Calm 30.12 1020 10 16.0934 0 0
2:54 am 02:54 Clear 28 -2.2 24 -4.4 85 85 S 5 7 30.13 1020 10 16.0934 0 0
3:54 am 03:54 Clear 27 -2.8 23 -5 85 85 Calm 30.12 1020 10 16.0934 0 0
4:54 am 04:54 Clear 27 -2.8 23 -5 85 85 SE 3 6 30.1 1019 10 16.0934 0 0
5:54 am 05:54 Clear 29 -1.7 24 -4.4 82 82 S 9 15 30.08 1019 10 16.0934 0 0
6:54 am 06:54 Clear 32 0 26 -3.3 79 79 S 10 17 30.06 1018 10 16.0934 0 0
7:54 am 07:54 Sunny 33 0.6 27 -2.8 78 78 SSE 12 19 30.05 1018 10 16.0934 0 0
8:54 am 08:54 Sunny 38 3.3 28 -2.2 68 68 S 13 20 30.01 1016 10 16.0934 0 0
9:54 am 09:54 Sunny 44 6.7 28 -2.2 53 53 S 15 24 29.98 1015 10 16.0934 0 0
10:54 am 10:54 Sunny 48 8.9 30 -1.1 50 50 S 18 30 29.94 1014 10 16.0934 0 0
11:54 am 11:54 Sunny 53 11.7 29 -1.7 40 40 S 26 43 29.87 1011 10 16.0934 0 0
12:54 pm 12:54 Sunny 57 13.9 31 -0.6 37 37 S 22 35 29.8 1009 10 16.0934 0 0
1:54 pm 13:54 Sunny 60 15.6 31 -0.6 33 33 S 17 28 29.73 1007 10 16.0934 0 0
2:54 pm 14:54 Sunny 62 16.7 31 -0.6 31 31 S 17 28 29.67 1005 10 16.0934 0 0
3:54 pm 15:54 Sunny 61 16.1 31 -0.6 32 32 S 18 30 29.63 1003 10 16.0934 0 0
4:54 pm 16:54 Sunny 58 14.4 31 -0.6 36 36 SSE 17 28 29.6 1002 10 16.0934 0 0
5:54 pm 17:54 Clear 57 13.9 30 -1.1 36 36 S 20 31 29.55 1001 10 16.0934 0 0
6:54 pm 18:54 Clear 55 12.8 31 -0.6 40 40 S 18 30 29.53 1000 10 16.0934 0 0
7:54 pm 19:54 Clear 56 13.3 34 1.1 44 44 S 20 31 29.51 999 10 16.0934 0 0
8:54 pm 20:54 Clear 56 13.3 37 2.8 49 49 S 23 37 29.48 998 10 16.0934 0 0
9:54 pm 21:54 Clear 55 12.8 37 2.8 51 51 S 23 37 29.44 997 10 16.0934 0 0
10:54 pm 22:54 Clear 54 12.2 37 2.8 53 53 S 22 35 29.4 996 10 16.0934 0 0
11:54 pm 23:54 Clear 54 12.2 39 3.9 57 57 S 21 33 29.37 995 10 16.0934 0 0

Powered by AerisWeather